Theta_e
310 310 310 310 310 311 311 311 312 312 312 312 312 312 313 314 314 318 324 324 323 316 316 319 319 319 319 320 319 319 312 312 314 319 318 322 322 327 331 337 338 338 339 339 344
310 309 310 310 310 311 311 312 312 312 313 313 313 313 314 314 316 319 325 323 318 315 316 319 320 321 321 319 319 315 310 314 314 318 318 321 322 324 326 328 338 338 341 342 345
309 309 310 310 311 311 311 312 312 312 313 313 313 314 315 315 322 323 319 316 316 315 318 320 320 321 318 319 319 316 314 314 318 320 321 321 322 323 325 324 327 345 344 345 345
309 309 309 310 311 311 312 312 312 313 313 313 314 315 315 316 323 322 317 316 316 317 319 320 320 320 317 317 320 318 319 318 321 322 322 320 322 322 324 325 327 330 344 347 345
309 309 309 310 311 311 312 312 313 313 313 313 314 316 315 320 325 322 319 317 318 319 320 320 320 319 318 318 320 319 320 322 323 323 322 322 322 320 323 326 326 327 344 347 345
309 309 309 310 311 312 312 312 313 313 314 313 315 316 316 326 322 322 318 322 322 322 322 322 322 321 319 319 318 320 320 320 322 323 321 320 321 322 325 330 337 335 339 339 345
308 309 309 310 311 312 313 313 313 314 313 314 315 316 315 322 322 322 321 322 321 322 322 322 322 321 320 317 321 321 318 316 319 321 320 323 329 332 337 344 346 343 344 341 340
307 308 309 310 311 312 313 315 316 314 314 314 315 316 321 322 320 320 322 323 323 321 321 321 321 321 320 321 321 320 317 317 318 321 323 330 331 333 341 341 338 342 345 343 344
308 308 309 311 312 313 318 319 317 315 314 315 318 326 327 322 320 323 322 322 322 323 321 321 321 319 319 317 315 315 318 318 319 323 327 328 331 333 334 337 337 338 333 332 337
308 308 309 311 312 318 317 319 323 320 319 316 323 325 327 325 324 323 323 321 323 321 321 321 321 317 314 315 319 318 320 320 322 326 330 330 332 331 331 334 336 338 341 339 347
309 308 309 311 313 319 317 318 319 322 320 322 324 324 323 323 323 323 322 321 322 321 319 321 318 318 318 316 318 321 322 322 322 329 331 332 333 332 333 334 333 335 339 340 347
310 308 309 311 317 319 317 316 317 318 318 319 320 320 322 323 323 323 321 321 321 319 321 318 319 320 319 323 323 323 323 320 322 330 331 334 335 333 333 335 329 330 339 344 348
311 309 309 311 316 319 317 316 316 316 318 322 323 321 321 322 323 324 322 321 321 319 319 318 321 322 323 323 323 324 322 322 322 325 331 330 330 333 334 334 337 338 341 346 344
310 309 309 311 319 318 318 317 316 317 322 326 322 320 320 322 322 323 322 323 322 322 322 321 322 324 324 325 322 323 323 324 324 322 321 326 331 333 334 337 337 339 339 341 339
310 310 309 310 311 314 318 316 317 320 331 325 319 322 323 322 323 323 323 322 322 321 322 323 324 323 323 323 323 322 324 322 323 322 329 331 333 332 333 336 337 337 337 337 336
310 310 310 310 312 317 317 318 319 325 331 322 322 320 320 321 322 323 322 322 323 322 322 322 323 323 324 324 323 322 325 324 325 323 328 330 329 330 334 335 339 336 336 335 334
310 310 311 310 311 313 314 321 319 329 327 324 321 320 319 320 322 322 322 321 321 323 326 327 323 323 325 323 322 323 322 324 325 331 330 329 335 334 334 335 335 332 335 334 332
310 311 311 310 316 315 320 320 328 329 329 324 321 320 321 322 322 322 323 324 324 324 326 327 325 326 326 324 324 326 323 324 328 327 328 331 337 335 334 331 331 329 333 331 329
311 312 311 315 317 317 320 322 325 326 326 325 323 321 321 324 323 327 326 325 324 323 325 327 329 327 326 326 323 326 324 324 323 325 328 331 332 331 331 330 329 327 328 329 327
313 313 319 319 318 317 318 321 324 325 326 326 327 325 323 323 324 325 327 325 326 326 325 326 329 329 326 325 325 323 323 323 322 327 329 329 334 332 334 332 326 325 326 327 327
313 320 320 319 316 320 318 319 323 323 324 326 326 327 326 323 325 327 327 325 325 326 325 324 323 325 324 325 326 323 321 322 321 322 326 326 333 330 331 327 325 325 326 326 325
312 318 321 320 316 317 316 320 323 323 324 325 326 326 327 328 327 325 325 325 324 325 322 322 321 326 328 327 324 324 324 319 320 322 321 323 332 326 326 326 326 326 324 324 323
316 319 320 318 316 317 319 325 323 322 324 324 324 324 325 326 327 327 325 323 321 321 319 321 320 321 324 322 323 324 323 323 319 318 322 324 331 327 327 326 325 325 324 322 320
314 319 320 318 318 317 320 323 321 323 324 324 324 324 323 323 322 326 323 323 323 324 325 326 321 322 324 325 323 324 324 322 319 319 321 326 329 326 323 323 323 322 319 318 316
312 317 322 317 316 315 317 321 322 323 322 324 322 323 325 325 327 327 323 322 324 325 328 322 327 326 325 325 325 325 324 323 323 322 325 327 326 323 322 322 320 317 316 315 315
314 319 318 321 324 317 316 320 323 323 322 323 323 327 325 328 327 327 326 327 327 324 325 320 325 325 325 326 325 325 325 324 324 324 325 324 323 320 321 318 315 314 314 314 315
313 317 318 320 321 320 317 321 322 321 327 328 324 324 324 324 325 325 325 324 324 323 323 323 323 325 326 325 326 326 324 326 324 323 323 323 321 316 315 315 314 314 315 316 316
Wind_Speed
13 14 15 16 16 17 18 18 19 18 17 16 16 16 16 13 9 5 4 4 8 6 1 3 3 5 11 10 6 3 3 4 6 3 8 12 6 12 11 16 9 14 10 15 28
13 15 16 17 16 17 18 18 19 17 16 16 16 15 14 11 6 6 5 7 6 2 3 3 4 11 10 7 4 4 3 7 7 4 6 10 10 8 9 6 4 8 8 26 31
15 15 17 17 17 17 19 18 19 16 15 15 15 13 12 9 6 3 5 5 3 2 4 5 11 14 4 5 13 4 7 6 12 20 9 5 14 13 7 6 3 17 24 34 34
15 16 18 18 18 18 19 18 18 15 14 14 13 11 9 5 1 5 6 6 3 5 2 5 8 12 4 4 9 4 12 9 10 6 6 5 8 13 6 7 16 8 24 42 40
16 17 18 18 18 18 18 17 16 15 13 13 11 9 7 4 2 4 4 4 6 1 6 11 16 7 2 6 12 4 4 14 17 18 17 12 8 4 16 15 19 13 27 44 43
16 17 19 18 19 18 18 17 14 14 12 9 9 7 3 3 2 7 1 5 3 8 12 15 11 15 6 7 0 6 11 16 18 22 18 4 6 3 16 25 35 47 33 13 34
18 19 19 19 19 18 17 16 14 13 9 6 8 6 3 4 2 3 4 4 4 6 12 11 13 15 16 10 13 16 7 9 16 12 7 3 20 21 28 32 34 43 44 50 27
18 18 18 19 18 18 17 16 13 10 6 4 5 4 4 2 3 5 4 7 6 5 7 10 11 17 7 9 9 5 3 2 8 5 10 21 10 23 27 42 30 29 33 39 36
19 19 20 18 17 17 16 17 6 6 2 1 0 3 4 2 6 2 7 11 13 11 10 9 10 6 6 3 6 5 4 4 8 13 5 9 2 10 21 39 32 35 27 22 26
19 19 19 17 15 14 16 10 5 3 3 1 3 4 1 0 3 3 5 6 8 7 10 8 3 3 4 5 3 7 5 4 4 6 14 12 6 4 17 31 28 34 35 26 38
19 20 19 16 11 13 20 4 8 1 10 4 7 10 10 4 4 2 4 4 8 10 2 4 3 5 11 7 7 4 3 4 4 10 10 5 7 8 13 21 27 30 34 18 29
19 20 18 14 5 7 14 17 14 11 11 7 12 17 12 10 5 4 3 4 2 5 1 5 5 12 9 4 5 8 2 6 3 10 12 7 5 7 12 6 21 19 25 14 20
19 20 18 12 2 4 9 13 11 15 4 9 9 10 9 8 4 8 6 4 5 6 5 7 7 9 2 6 5 2 3 3 1 8 9 10 8 9 5 17 27 11 9 19 31
18 18 18 10 1 2 3 7 6 10 4 5 3 5 9 4 3 2 5 4 4 4 4 3 3 2 6 3 2 3 3 3 5 4 4 1 1 5 8 7 5 15 9 28 28
18 18 14 14 11 6 8 13 2 2 3 5 3 8 10 5 1 4 6 3 4 8 2 5 0 4 5 3 3 7 4 5 2 4 5 8 5 4 4 8 13 6 19 27 26
17 17 15 13 11 4 11 6 2 3 2 3 7 5 4 9 3 5 3 3 8 4 2 5 4 2 4 4 5 6 4 7 5 4 4 6 6 6 3 3 10 12 17 25 26
17 16 16 13 9 10 13 5 4 2 0 5 5 5 5 4 4 4 2 2 3 3 5 7 2 2 1 5 7 10 7 4 5 5 3 4 9 4 6 6 8 9 18 23 25
17 16 13 10 3 4 4 4 1 3 6 3 5 6 6 4 4 2 4 2 3 4 2 4 5 1 1 3 3 3 6 5 1 2 3 6 4 3 5 10 1 19 24 22 20
17 14 10 2 1 2 3 2 4 4 4 2 5 4 4 5 5 5 4 3 5 4 4 6 5 6 6 0 5 5 6 1 6 3 4 1 3 2 4 7 11 13 20 19 21
16 12 3 6 2 1 4 5 4 4 5 5 5 1 6 5 4 4 3 5 4 9 5 4 3 4 7 9 9 7 2 6 5 2 2 3 2 3 4 3 4 8 13 16 17
11 5 3 3 2 1 2 6 5 6 8 4 4 3 2 5 5 4 4 4 7 6 13 3 3 6 4 6 3 6 5 6 5 4 4 0 4 2 3 1 5 8 14 17 19
6 2 4 6 2 3 2 4 8 3 5 3 3 3 4 6 6 5 4 3 5 5 3 3 4 1 1 3 3 4 3 5 5 5 1 4 3 4 3 14 15 20 26 27 23
4 4 5 9 2 3 6 6 6 6 4 4 3 4 5 4 6 7 5 4 12 5 3 4 4 4 8 7 7 5 4 3 4 3 2 5 3 7 6 14 20 23 21 19 20
4 2 4 8 4 2 3 5 3 4 4 3 3 6 6 6 6 5 5 2 12 8 7 4 3 5 4 5 4 7 10 5 4 4 2 3 4 8 9 8 17 20 19 20 21
4 4 1 2 5 6 2 4 5 2 5 7 6 5 1 6 6 5 5 4 8 7 6 4 3 4 3 5 5 7 8 9 11 2 5 5 10 3 4 7 14 16 18 18 18
3 2 7 6 9 6 5 3 3 4 1 3 7 9 11 5 5 4 5 3 2 10 4 5 2 6 4 3 11 9 9 11 10 11 11 9 8 5 9 12 17 18 18 16 18
5 9 5 5 5 3 4 3 3 7 9 7 17 7 12 7 17 19 16 11 7 5 1 3 2 3 4 7 3 7 8 11 10 12 3 5 3 6 8 10 15 18 18 19 17
Wind_Direction
326 329 326 323 329 330 330 332 331 331 332 331 326 325 321 326 321 295 303 334 337 345 185 178 262 300 292 276 267 286 59 300 255 280 275 317 346 13 83 126 139 195 199 161 151
328 328 322 323 329 330 329 332 331 329 334 329 324 327 322 340 323 287 296 324 333 342 168 292 310 320 305 268 285 107 113 235 205 244 242 321 323 348 3 86 148 177 148 157 161
326 327 325 324 330 330 328 332 328 331 333 329 325 328 326 347 334 16 359 13 22 155 189 282 312 324 274 279 256 216 219 233 274 272 255 314 324 348 360 352 90 161 157 165 175
325 328 328 325 330 329 328 331 325 334 329 329 325 328 334 359 138 352 15 28 98 175 240 317 324 331 290 285 280 214 254 223 296 286 316 299 307 326 304 301 337 313 177 172 180
327 332 329 325 330 327 328 323 326 330 327 324 325 334 353 343 348 20 1 69 103 35 330 326 311 292 253 290 331 191 301 305 294 311 315 300 290 295 305 326 339 2 182 180 186
328 334 329 329 329 328 326 321 326 325 319 321 321 334 345 312 49 25 135 107 14 329 333 331 330 326 295 317 317 312 313 292 301 301 301 237 288 283 294 60 72 76 82 169 201
327 335 331 327 330 330 324 323 327 316 305 314 317 344 278 273 38 9 52 83 33 333 320 329 331 341 330 326 334 324 342 326 295 286 280 341 27 19 73 79 62 76 76 77 99
333 337 326 330 339 332 329 327 319 300 292 302 317 358 271 214 251 260 291 301 305 280 298 311 319 311 292 303 321 312 29 345 281 327 28 90 26 26 46 62 36 41 59 77 80
335 337 332 340 347 337 342 323 331 307 300 298 270 346 283 256 250 236 260 283 309 258 265 297 293 303 316 66 349 355 254 259 323 1 81 77 42 1 52 54 37 22 16 19 30
337 336 335 344 349 351 349 341 1 349 331 92 228 320 307 58 180 271 264 277 288 277 291 253 258 16 10 62 277 287 3 349 96 13 70 86 75 323 40 55 40 17 15 42 56
339 337 338 345 5 10 20 61 13 283 321 247 261 280 283 359 288 248 236 288 257 287 246 311 56 254 264 213 217 271 342 81 105 152 67 56 49 326 18 48 46 15 360 354 51
340 337 338 344 28 25 46 46 21 342 308 270 254 263 279 274 299 254 214 245 272 250 27 19 224 244 242 314 327 331 81 333 90 120 95 84 23 341 25 42 67 353 336 9 57
336 337 336 347 18 10 70 29 15 333 271 290 228 240 233 232 247 268 225 278 257 282 291 180 227 228 317 1 47 26 62 356 306 72 83 98 12 355 346 54 92 227 250 74 69
333 334 339 357 336 96 25 326 339 348 37 273 206 248 213 212 272 193 208 308 326 280 291 214 292 53 31 14 116 11 270 329 319 67 160 95 165 323 341 358 58 102 129 88 75
327 330 339 332 324 301 309 313 322 359 74 167 177 156 171 175 148 212 254 269 258 265 355 259 347 47 36 273 345 245 322 312 304 115 105 7 83 315 3 5 21 18 82 83 73
321 323 325 320 320 324 311 326 308 45 172 205 153 171 130 230 251 183 192 244 288 300 307 241 281 122 213 306 320 274 348 30 40 63 56 254 121 334 331 88 86 272 93 88 82
314 314 313 315 323 308 312 313 46 137 115 162 170 165 188 234 209 164 106 52 338 35 351 328 234 284 45 26 359 52 53 360 8 12 179 260 57 219 286 111 178 146 113 103 91
311 307 307 308 330 323 335 51 136 265 262 220 142 160 192 206 225 191 72 60 334 81 93 5 35 166 359 136 203 25 112 139 251 269 283 359 139 217 215 352 281 114 114 98 96
312 311 318 176 130 36 48 81 227 290 303 354 124 151 235 208 119 104 98 52 40 26 87 23 335 332 341 288 91 313 35 250 107 13 74 324 30 71 254 290 52 82 103 115 106
320 329 37 172 67 80 67 242 258 313 359 29 55 358 171 186 117 97 65 336 19 31 95 333 7 17 312 46 20 85 274 27 15 65 24 338 162 242 177 265 41 58 81 108 114
320 336 139 68 43 199 185 245 280 347 32 53 23 330 309 206 93 77 37 356 15 1 63 32 73 304 32 15 311 6 35 56 108 119 151 177 317 284 189 243 85 64 48 74 85
303 336 167 230 298 248 221 225 314 302 15 337 52 21 12 76 58 87 82 55 31 349 53 15 133 308 240 245 89 114 117 109 110 283 158 127 297 317 56 41 53 55 67 75 70
292 281 189 208 203 295 290 283 268 4 357 342 13 60 33 115 90 117 96 40 56 57 61 349 14 18 353 349 9 32 341 119 111 81 204 112 213 21 79 52 67 75 69 56 42
280 325 205 212 235 215 309 289 309 356 351 54 33 67 56 45 72 140 126 96 78 78 59 77 75 134 169 238 249 325 325 12 107 95 110 45 101 5 11 42 58 61 49 37 25
242 256 262 245 261 214 354 279 309 330 353 33 11 48 70 56 54 52 62 103 47 34 40 84 54 14 254 277 352 17 72 67 63 42 89 118 93 24 5 81 62 50 33 22 15
211 304 337 299 294 172 178 273 328 291 66 359 68 56 79 82 111 82 110 72 105 29 49 8 347 29 316 30 61 45 31 58 48 75 100 107 63 1 79 81 52 35 22 16 8
213 287 261 299 328 105 220 225 274 353 24 43 121 85 90 136 109 105 102 97 112 124 86 74 77 44 296 337 29 37 350 85 71 40 93 68 8 11 38 71 52 24 9 355 347